sat.trackr.live / text

‹ back to catalog

2025-155V

NORAD 64895 · 2025-155V

PAYLOAD ACTIVE UNKNOWN

§ Identity

Operator
Country
TBD
Launch date
2025-07-25
Launch site
VOSTO
Launch vehicle
Mass (kg)
RCS (m²)

External: N2YO · Heavens-Above · Gunter

§ Orbital elements

Epoch: 2026-05-25T03:07:01.435872Z

Period
94.17 min
Inclination
97.4561°
Eccentricity
0.0005088
Mean motion
15.29070076 rev/d
Perigee alt
475.1 km
Apogee alt
482.1 km
Semi-major
6,856.7 km
B*
3.1580e-4
RAAN
113.5747°
Arg perigee
255.0464°
Mean anomaly
105.0213°
Rev number
7,722

§ Raw data

2025-155V1 64895U 25155V   26145.12987773  .00008841  00000+0  31580-3 0  99922 64895  97.4561 113.5747 0005088 255.0464 105.0213 15.29070076 77228

JSON: /api/v1/satellites/64895 · /tle

For live sub-satellite position, see the globe view (requires WebGL).

§ Visibility from observer

Set your observer location to see the next 7 days of passes ≥ 10°. The values pass through the URL so the page stays shareable.

No JS? Fill the form by hand. The geolocation button needs JavaScript.

§ Radio — SatNOGS DB

ModeDescriptionDownlinkUplink
LoRa LoRa telemetry 436.725 MHz

1 transmitter · refreshed weekly from db.satnogs.org